Back to catalog

SL-8 R/B

AliveLEO
NORAD 4071·ROCKET BODY·🇷🇺 Russia

Launched Aug 13, 1969 from Plesetsk Cosmodrome

Loading…

Next Passes (next 24 hours)

TLE

FreshSource: Space-Track

Epoch: Sep 14, 2026, 14:57 UTC

1 04071U 69070B   26257.62346993  .00000303  00000-0  59864-4 0  9990
2 04071  74.0473 124.3375 0014386 308.6301  51.3579 14.66785784 31850

Track SL-8 R/B in real time with AllMySat

Download on the App Store